TimeHST,TemperatureF,Dew PointF,Humidity,Sea Level PressureIn,VisibilityMPH,Wind Direction,Wind SpeedMPH,Gust SpeedMPH,PrecipitationIn,Events,Conditions,WindDirDegrees,DateUTC
12:54 AM,73.9,68.0,82,30.01,10.0,NE,10.4,-,N/A,,Scattered Clouds,40,2013-06-29 10:54:00
1:54 AM,73.0,66.9,81,29.99,10.0,NNE,10.4,-,N/A,,Clear,30,2013-06-29 11:54:00
2:54 AM,71.1,66.0,84,29.98,10.0,NE,8.1,-,N/A,,Clear,50,2013-06-29 12:54:00
3:54 AM,69.1,61.0,75,29.97,10.0,NNE,4.6,-,N/A,,Clear,20,2013-06-29 13:54:00
4:54 AM,71.1,64.9,81,29.98,10.0,North,6.9,-,N/A,,Clear,10,2013-06-29 14:54:00
5:54 AM,73.0,64.9,76,29.99,10.0,NNE,6.9,-,N/A,,Partly Cloudy,20,2013-06-29 15:54:00
6:54 AM,77.0,64.9,66,30.00,10.0,NE,12.7,-,N/A,,Scattered Clouds,50,2013-06-29 16:54:00
7:54 AM,79.0,66.0,64,30.01,10.0,NE,12.7,-,N/A,,Partly Cloudy,50,2013-06-29 17:54:00
8:54 AM,82.0,68.0,62,30.01,10.0,ENE,17.3,21.9,N/A,,Partly Cloudy,60,2013-06-29 18:54:00
9:54 AM,84.0,68.0,58,30.01,10.0,ENE,17.3,25.3,N/A,,Scattered Clouds,60,2013-06-29 19:54:00
10:54 AM,82.9,66.0,56,30.00,10.0,ENE,16.1,21.9,N/A,,Scattered Clouds,60,2013-06-29 20:54:00
11:54 AM,86.0,68.0,55,29.99,10.0,East,12.7,23.0,N/A,,Scattered Clouds,80,2013-06-29 21:54:00
12:54 PM,84.9,69.1,59,29.98,10.0,East,15.0,21.9,0.01,,Scattered Clouds,80,2013-06-29 22:54:00
1:54 PM,80.1,72.0,76,29.99,10.0,NE,16.1,27.6,0.00,Rain,Light Rain,50,2013-06-29 23:54:00
2:54 PM,80.1,72.0,76,29.97,10.0,ENE,18.4,25.3,0.00,,Scattered Clouds,60,2013-06-30 00:54:00
3:54 PM,82.0,71.1,69,29.96,10.0,ENE,19.6,29.9,N/A,,Scattered Clouds,70,2013-06-30 01:54:00
4:54 PM,81.0,70.0,69,29.97,10.0,ENE,18.4,29.9,N/A,,Scattered Clouds,70,2013-06-30 02:54:00
5:54 PM,78.1,69.1,74,29.97,10.0,ENE,21.9,28.8,N/A,,Scattered Clouds,60,2013-06-30 03:54:00
6:54 PM,77.0,68.0,74,29.99,10.0,ENE,17.3,24.2,N/A,,Mostly Cloudy,60,2013-06-30 04:54:00
7:54 PM,73.9,70.0,87,30.01,10.0,ENE,17.3,26.5,N/A,,Scattered Clouds,60,2013-06-30 05:54:00
8:54 PM,75.0,68.0,79,30.03,10.0,NE,12.7,23.0,N/A,,Overcast,50,2013-06-30 06:54:00
9:54 PM,75.9,68.0,76,30.04,10.0,ENE,12.7,17.3,N/A,,Mostly Cloudy,70,2013-06-30 07:54:00
10:54 PM,75.9,69.1,79,30.04,10.0,NNE,16.1,-,N/A,,Clear,30,2013-06-30 08:54:00
11:54 PM,75.9,69.1,79,30.04,10.0,NE,9.2,-,N/A,,Mostly Cloudy,50,2013-06-30 09:54:00